User: anonymous   Login
Location: Unspecified
(0.0000°N, 0.0000°E)
Time: 01:16:52
(UTC+00:00)
Language:

STRELA 3 - Orbit

View from above orbital plane
View from above orbital plane
View from above satellite
View from above satellite

Ground track
Ground track

The orbit data is extracted from the following two-line orbital elements,

1 37153U 10043B   24201.58822091  .00000009  00000-0 -57688-5 0  9990
2 37153  82.4591 152.9645 0007822 149.2530 210.9008 12.40768992627851
Epoch (UTC): 19 July 2024 14:07:02
Eccentricity: 0.0007822
inclination: 82.4591°
perigee height: 1497 km
apogee height: 1509 km
right ascension of ascending node: 152.9645°
argument of perigee: 149.2530°
revolutions per day: 12.40768992
mean anomaly at epoch: 210.9008°
orbit number at epoch: 62785

The dashed part of the orbit path shows where the satellite is in the earth's shadow,  

DLR